owner,sensor,date,latitude,longitude,vertical_datum,sea_water_practical_salinity,qcFlag 
DISL,ioos:station:DISL:DISL:1,2008-10-01T00:00:00Z,30.2513,-88.0778,7.33,24.61,1111122 
DISL,ioos:station:DISL:DISL:1,2008-10-01T00:30:00Z,30.2513,-88.0778,7.38,26.69,1111122 
DISL,ioos:station:DISL:DISL:1,2008-10-01T01:00:00Z,30.2513,-88.0778,7.48,27.26,1111122 
DISL,ioos:station:DISL:DISL:1,2008-10-01T01:30:00Z,30.2513,-88.0778,7.5,27.09,1111122 
DISL,ioos:station:DISL:DISL:1,2008-10-01T02:00:00Z,30.2513,-88.0778,7.52,27.38,1111122 
DISL,ioos:station:DISL:DISL:1,2008-10-01T02:30:00Z,30.2513,-88.0778,7.55,25.94,1111122 
DISL,ioos:station:DISL:DISL:1,2008-10-01T03:00:00Z,30.2513,-88.0778,7.53,25.36,1111122 
DISL,ioos:station:DISL:DISL:1,2008-10-01T03:30:00Z,30.2513,-88.0778,7.56,24.42,1111122 
DISL,ioos:station:DISL:DISL:1,2008-10-01T04:00:00Z,30.2513,-88.0778,7.51,24.25,1111122 
DISL,ioos:station:DISL:DISL:1,2008-10-01T04:30:00Z,30.2513,-88.0778,7.52,24.05,1111122 
DISL,ioos:station:DISL:DISL:1,2008-10-01T05:00:00Z,30.2513,-88.0778,7.55,23.99,1111122 
DISL,ioos:station:DISL:DISL:1,2008-10-01T05:30:00Z,30.2513,-88.0778,7.47,23.95,1111122 
DISL,ioos:station:DISL:DISL:1,2008-10-01T06:00:00Z,30.2513,-88.0778,7.4,23.73,1111122 
DISL,ioos:station:DISL:DISL:1,2008-10-01T06:30:00Z,30.2513,-88.0778,7.34,23.58,1111122 
DISL,ioos:station:DISL:DISL:1,2008-10-01T07:00:00Z,30.2513,-88.0778,7.29,21.98,1111122 
DISL,ioos:station:DISL:DISL:1,2008-10-01T07:30:00Z,30.2513,-88.0778,7.09,22.16,1111122 
DISL,ioos:station:DISL:DISL:1,2008-10-01T08:00:00Z,30.2513,-88.0778,6.992,22.4,1111122 
DISL,ioos:station:DISL:DISL:1,2008-10-01T08:30:00Z,30.2513,-88.0778,6.801,23.02,1111122 
DISL,ioos:station:DISL:DISL:1,2008-10-01T09:00:00Z,30.2513,-88.0778,6.72,23.11,1111122 
DISL,ioos:station:DISL:DISL:1,2008-10-01T09:30:00Z,30.2513,-88.0778,6.705,23.44,1111122 
DISL,ioos:station:DISL:DISL:1,2008-10-01T10:00:00Z,30.2513,-88.0778,6.373,24.33,1111122 
DISL,ioos:station:DISL:DISL:1,2008-10-01T10:30:00Z,30.2513,-88.0778,6.552,24.34,1111122 
DISL,ioos:station:DISL:DISL:1,2008-10-01T11:00:00Z,30.2513,-88.0778,6.509,24.31,1111122 
DISL,ioos:station:DISL:DISL:1,2008-10-01T11:30:00Z,30.2513,-88.0778,6.311,24.26,1111122 
DISL,ioos:station:DISL:DISL:1,2008-10-01T12:00:00Z,30.2513,-88.0778,6.313,24.27,1111122 
DISL,ioos:station:DISL:DISL:1,2008-10-01T12:30:00Z,30.2513,-88.0778,6.229,24.28,1111122 
DISL,ioos:station:DISL:DISL:1,2008-10-01T13:00:00Z,30.2513,-88.0778,6.292,24.45,1111122 
DISL,ioos:station:DISL:DISL:1,2008-10-01T13:30:00Z,30.2513,-88.0778,6.155,24.42,1111122 
DISL,ioos:station:DISL:DISL:1,2008-10-01T14:00:00Z,30.2513,-88.0778,6.157,24.6,1111122 
DISL,ioos:station:DISL:DISL:1,2008-10-01T14:30:00Z,30.2513,-88.0778,6.085,24.62,1111122 
DISL,ioos:station:DISL:DISL:1,2008-10-01T15:00:00Z,30.2513,-88.0778,6.167,24.56,1111122 
DISL,ioos:station:DISL:DISL:1,2008-10-01T15:30:00Z,30.2513,-88.0778,6.127,24.56,1111122 
DISL,ioos:station:DISL:DISL:1,2008-10-01T16:00:00Z,30.2513,-88.0778,6.209,24.35,1111122 
DISL,ioos:station:DISL:DISL:1,2008-10-01T16:30:00Z,30.2513,-88.0778,6.264,24.28,1111122 
DISL,ioos:station:DISL:DISL:1,2008-10-01T17:00:00Z,30.2513,-88.0778,6.336,25.64,1111122 
DISL,ioos:station:DISL:DISL:1,2008-10-01T17:30:00Z,30.2513,-88.0778,6.362,24.57,1111122 
DISL,ioos:station:DISL:DISL:1,2008-10-01T18:00:00Z,30.2513,-88.0778,6.456,25.52,1111122 
DISL,ioos:station:DISL:DISL:1,2008-10-01T18:30:00Z,30.2513,-88.0778,6.473,25.22,1111122 
DISL,ioos:station:DISL:DISL:1,2008-10-01T19:00:00Z,30.2513,-88.0778,6.555,24.49,1111122 
DISL,ioos:station:DISL:DISL:1,2008-10-01T19:30:00Z,30.2513,-88.0778,6.597,23.62,1111122 
DISL,ioos:station:DISL:DISL:1,2008-10-01T20:00:00Z,30.2513,-88.0778,6.639,23.47,1111122 
DISL,ioos:station:DISL:DISL:1,2008-10-01T20:30:00Z,30.2513,-88.0778,6.669,23.49,1111122 
DISL,ioos:station:DISL:DISL:1,2008-10-01T21:00:00Z,30.2513,-88.0778,6.722,23.55,1111122 
DISL,ioos:station:DISL:DISL:1,2008-10-01T21:30:00Z,30.2513,-88.0778,6.791,23.68,1111122 
DISL,ioos:station:DISL:DISL:1,2008-10-01T22:00:00Z,30.2513,-88.0778,6.797,23.69,1111122 
DISL,ioos:station:DISL:DISL:1,2008-10-01T22:30:00Z,30.2513,-88.0778,6.859,23.86,1111122 
DISL,ioos:station:DISL:DISL:1,2008-10-01T23:00:00Z,30.2513,-88.0778,6.9,26.26,1111122 
DISL,ioos:station:DISL:DISL:1,2008-10-01T23:30:00Z,30.2513,-88.0778,6.963,25.97,1111122 
DISL,ioos:station:DISL:DISL:1,2008-10-02T00:00:00Z,30.2513,-88.0778,7.02,27.74,1111122 
DISL,ioos:station:DISL:DISL:1,2008-10-02T00:30:00Z,30.2513,-88.0778,7.06,28.17,1111122 
DISL,ioos:station:DISL:DISL:1,2008-10-02T01:00:00Z,30.2513,-88.0778,7.11,26.45,1111122 
DISL,ioos:station:DISL:DISL:1,2008-10-02T01:30:00Z,30.2513,-88.0778,7.13,28.21,1111122 
DISL,ioos:station:DISL:DISL:1,2008-10-02T02:00:00Z,30.2513,-88.0778,7.15,27.2,1111122 
DISL,ioos:station:DISL:DISL:1,2008-10-02T02:30:00Z,30.2513,-88.0778,7.19,28.27,1111122 
DISL,ioos:station:DISL:DISL:1,2008-10-02T03:00:00Z,30.2513,-88.0778,7.23,27.98,1111122 
DISL,ioos:station:DISL:DISL:1,2008-10-02T03:30:00Z,30.2513,-88.0778,7.25,28.01,1111122 
DISL,ioos:station:DISL:DISL:1,2008-10-02T04:00:00Z,30.2513,-88.0778,7.24,25.77,1111122 
DISL,ioos:station:DISL:DISL:1,2008-10-02T04:30:00Z,30.2513,-88.0778,7.27,26.17,1111122 
DISL,ioos:station:DISL:DISL:1,2008-10-02T05:00:00Z,30.2513,-88.0778,7.28,24.25,1111122 
DISL,ioos:station:DISL:DISL:1,2008-10-02T05:30:00Z,30.2513,-88.0778,7.28,24.11,1111122 
DISL,ioos:station:DISL:DISL:1,2008-10-02T06:00:00Z,30.2513,-88.0778,7.29,24.11,1111122 
DISL,ioos:station:DISL:DISL:1,2008-10-02T06:30:00Z,30.2513,-88.0778,7.17,24.1,1111122 
DISL,ioos:station:DISL:DISL:1,2008-10-02T07:00:00Z,30.2513,-88.0778,7.02,24.1,1111122 
DISL,ioos:station:DISL:DISL:1,2008-10-02T07:30:00Z,30.2513,-88.0778,7.03,24.12,1111122 
DISL,ioos:station:DISL:DISL:1,2008-10-02T08:00:00Z,30.2513,-88.0778,6.935,24.07,1111122 
DISL,ioos:station:DISL:DISL:1,2008-10-02T08:30:00Z,30.2513,-88.0778,6.814,23.98,1111122 
DISL,ioos:station:DISL:DISL:1,2008-10-02T09:00:00Z,30.2513,-88.0778,6.683,23.88,1111122 
DISL,ioos:station:DISL:DISL:1,2008-10-02T09:30:00Z,30.2513,-88.0778,6.652,23.7,1111122 
DISL,ioos:station:DISL:DISL:1,2008-10-02T10:00:00Z,30.2513,-88.0778,6.56,23.55,1111122 
DISL,ioos:station:DISL:DISL:1,2008-10-02T10:30:00Z,30.2513,-88.0778,6.518,23.52,1111122 
DISL,ioos:station:DISL:DISL:1,2008-10-02T11:00:00Z,30.2513,-88.0778,6.587,23.49,1111122 
DISL,ioos:station:DISL:DISL:1,2008-10-02T11:30:00Z,30.2513,-88.0778,6.322,23.64,1111122 
DISL,ioos:station:DISL:DISL:1,2008-10-02T12:00:00Z,30.2513,-88.0778,6.243,23.77,1111122 
DISL,ioos:station:DISL:DISL:1,2008-10-02T12:30:00Z,30.2513,-88.0778,6.169,23.97,1111122 
DISL,ioos:station:DISL:DISL:1,2008-10-02T13:00:00Z,30.2513,-88.0778,6.103,24.11,1111122 
DISL,ioos:station:DISL:DISL:1,2008-10-02T13:30:00Z,30.2513,-88.0778,6.071,24.24,1111122 
DISL,ioos:station:DISL:DISL:1,2008-10-02T14:00:00Z,30.2513,-88.0778,6.156,24.3,1111122 
DISL,ioos:station:DISL:DISL:1,2008-10-02T14:30:00Z,30.2513,-88.0778,5.984,24.32,1111122 
DISL,ioos:station:DISL:DISL:1,2008-10-02T15:00:00Z,30.2513,-88.0778,5.978,24.26,1111122 
DISL,ioos:station:DISL:DISL:1,2008-10-02T15:30:00Z,30.2513,-88.0778,6.003,24.25,1111122 
DISL,ioos:station:DISL:DISL:1,2008-10-02T16:00:00Z,30.2513,-88.0778,5.925,24.44,1111122 
DISL,ioos:station:DISL:DISL:1,2008-10-02T16:30:00Z,30.2513,-88.0778,5.956,24.55,1111122 
DISL,ioos:station:DISL:DISL:1,2008-10-02T17:00:00Z,30.2513,-88.0778,6.013,25.6,1111122 
DISL,ioos:station:DISL:DISL:1,2008-10-02T17:30:00Z,30.2513,-88.0778,6.036,27.42,1111122 
DISL,ioos:station:DISL:DISL:1,2008-10-02T18:00:00Z,30.2513,-88.0778,6.052,27.52,1111122 
DISL,ioos:station:DISL:DISL:1,2008-10-02T18:30:00Z,30.2513,-88.0778,6.077,27.8,1111122 
DISL,ioos:station:DISL:DISL:1,2008-10-02T19:00:00Z,30.2513,-88.0778,6.141,28.35,1111122 
DISL,ioos:station:DISL:DISL:1,2008-10-02T19:30:00Z,30.2513,-88.0778,6.158,27.48,1111122 
DISL,ioos:station:DISL:DISL:1,2008-10-02T20:00:00Z,30.2513,-88.0778,6.181,25.97,1111122 
DISL,ioos:station:DISL:DISL:1,2008-10-02T20:30:00Z,30.2513,-88.0778,6.29,25.41,1111122 
DISL,ioos:station:DISL:DISL:1,2008-10-02T21:00:00Z,30.2513,-88.0778,6.329,25.51,1111122 
DISL,ioos:station:DISL:DISL:1,2008-10-02T21:30:00Z,30.2513,-88.0778,6.391,25.67,1111122 
DISL,ioos:station:DISL:DISL:1,2008-10-02T22:00:00Z,30.2513,-88.0778,6.453,25.2,1111122 
DISL,ioos:station:DISL:DISL:1,2008-10-02T22:30:00Z,30.2513,-88.0778,6.558,25.2,1111122 
DISL,ioos:station:DISL:DISL:1,2008-10-02T23:00:00Z,30.2513,-88.0778,6.611,26.19,1111122 
DISL,ioos:station:DISL:DISL:1,2008-10-02T23:30:00Z,30.2513,-88.0778,6.646,26.36,1111122 
DISL,ioos:station:DISL:DISL:1,2008-10-03T00:00:00Z,30.2513,-88.0778,6.746,25.25,1111122 
DISL,ioos:station:DISL:DISL:1,2008-10-03T00:30:00Z,30.2513,-88.0778,6.835,26.7,1111122 
DISL,ioos:station:DISL:DISL:1,2008-10-03T01:00:00Z,30.2513,-88.0778,6.906,26.26,1111122 
DISL,ioos:station:DISL:DISL:1,2008-10-03T01:30:00Z,30.2513,-88.0778,6.998,26.65,1111122 
DISL,ioos:station:DISL:DISL:1,2008-10-03T02:00:00Z,30.2513,-88.0778,7.08,26.57,1111122 
DISL,ioos:station:DISL:DISL:1,2008-10-03T02:30:00Z,30.2513,-88.0778,7.17,26.41,1111122 
DISL,ioos:station:DISL:DISL:1,2008-10-03T03:00:00Z,30.2513,-88.0778,7.19,26.04,1111122 
DISL,ioos:station:DISL:DISL:1,2008-10-03T03:30:00Z,30.2513,-88.0778,7.26,25.23,1111122 
DISL,ioos:station:DISL:DISL:1,2008-10-03T04:00:00Z,30.2513,-88.0778,7.3,25.04,1111122 
DISL,ioos:station:DISL:DISL:1,2008-10-03T04:30:00Z,30.2513,-88.0778,7.3,24.61,1111122 
DISL,ioos:station:DISL:DISL:1,2008-10-03T05:00:00Z,30.2513,-88.0778,7.3,24.6,1111122 
DISL,ioos:station:DISL:DISL:1,2008-10-03T05:30:00Z,30.2513,-88.0778,7.31,24.6,1111122 
DISL,ioos:station:DISL:DISL:1,2008-10-03T06:00:00Z,30.2513,-88.0778,7.31,24.6,1111122 
DISL,ioos:station:DISL:DISL:1,2008-10-03T06:30:00Z,30.2513,-88.0778,7.28,24.63,1111122 
DISL,ioos:station:DISL:DISL:1,2008-10-03T07:00:00Z,30.2513,-88.0778,7.22,24.66,1111122 
DISL,ioos:station:DISL:DISL:1,2008-10-03T07:30:00Z,30.2513,-88.0778,7.16,24.67,1111122 
DISL,ioos:station:DISL:DISL:1,2008-10-03T08:00:00Z,30.2513,-88.0778,7.09,24.71,1111122 
DISL,ioos:station:DISL:DISL:1,2008-10-03T08:30:00Z,30.2513,-88.0778,7.01,24.71,1111122 
DISL,ioos:station:DISL:DISL:1,2008-10-03T09:00:00Z,30.2513,-88.0778,6.919,24.74,1111122 
DISL,ioos:station:DISL:DISL:1,2008-10-03T09:30:00Z,30.2513,-88.0778,6.827,24.74,1111122 
DISL,ioos:station:DISL:DISL:1,2008-10-03T10:00:00Z,30.2513,-88.0778,6.739,24.74,1111122 
DISL,ioos:station:DISL:DISL:1,2008-10-03T10:30:00Z,30.2513,-88.0778,6.663,24.75,1111122 
DISL,ioos:station:DISL:DISL:1,2008-10-03T11:00:00Z,30.2513,-88.0778,6.564,24.78,1111122 
DISL,ioos:station:DISL:DISL:1,2008-10-03T11:30:00Z,30.2513,-88.0778,6.517,25.04,1111122 
DISL,ioos:station:DISL:DISL:1,2008-10-03T12:00:00Z,30.2513,-88.0778,6.429,25.22,1111122 
DISL,ioos:station:DISL:DISL:1,2008-10-03T12:30:00Z,30.2513,-88.0778,6.35,26.2,1111122 
DISL,ioos:station:DISL:DISL:1,2008-10-03T13:00:00Z,30.2513,-88.0778,6.283,26.24,1111122 
DISL,ioos:station:DISL:DISL:1,2008-10-03T13:30:00Z,30.2513,-88.0778,6.231,26.67,1111122 
DISL,ioos:station:DISL:DISL:1,2008-10-03T14:00:00Z,30.2513,-88.0778,6.166,27.09,1111122 
DISL,ioos:station:DISL:DISL:1,2008-10-03T14:30:00Z,30.2513,-88.0778,6.09,26.93,1111122 
DISL,ioos:station:DISL:DISL:1,2008-10-03T15:00:00Z,30.2513,-88.0778,6.02,26.95,1111122 
DISL,ioos:station:DISL:DISL:1,2008-10-03T15:30:00Z,30.2513,-88.0778,5.957,26.62,1111122 
DISL,ioos:station:DISL:DISL:1,2008-10-03T16:00:00Z,30.2513,-88.0778,5.901,26.34,1111122 
DISL,ioos:station:DISL:DISL:1,2008-10-03T16:30:00Z,30.2513,-88.0778,5.883,26.11,1111122 
DISL,ioos:station:DISL:DISL:1,2008-10-03T17:00:00Z,30.2513,-88.0778,5.866,25.9,1111122 
DISL,ioos:station:DISL:DISL:1,2008-10-03T17:30:00Z,30.2513,-88.0778,5.886,25.62,1111122 
DISL,ioos:station:DISL:DISL:1,2008-10-03T18:00:00Z,30.2513,-88.0778,5.873,25.32,1111122 
DISL,ioos:station:DISL:DISL:1,2008-10-03T18:30:00Z,30.2513,-88.0778,5.858,25.38,1111122 
DISL,ioos:station:DISL:DISL:1,2008-10-03T19:00:00Z,30.2513,-88.0778,5.914,25.81,1111122 
DISL,ioos:station:DISL:DISL:1,2008-10-03T19:30:00Z,30.2513,-88.0778,5.918,26.06,1111122 
DISL,ioos:station:DISL:DISL:1,2008-10-03T20:00:00Z,30.2513,-88.0778,5.917,26.03,1111122 
DISL,ioos:station:DISL:DISL:1,2008-10-03T20:30:00Z,30.2513,-88.0778,5.989,26.22,1111122 
DISL,ioos:station:DISL:DISL:1,2008-10-03T21:00:00Z,30.2513,-88.0778,6.014,26.25,1111122 
DISL,ioos:station:DISL:DISL:1,2008-10-03T21:30:00Z,30.2513,-88.0778,6.114,26.25,1111122 
DISL,ioos:station:DISL:DISL:1,2008-10-03T22:00:00Z,30.2513,-88.0778,6.179,26.05,1111122 
DISL,ioos:station:DISL:DISL:1,2008-10-03T22:30:00Z,30.2513,-88.0778,6.27,25.79,1111122 
DISL,ioos:station:DISL:DISL:1,2008-10-03T23:00:00Z,30.2513,-88.0778,6.365,25.67,1111122 
DISL,ioos:station:DISL:DISL:1,2008-10-03T23:30:00Z,30.2513,-88.0778,6.381,25.55,1111122 
DISL,ioos:station:DISL:DISL:1,2008-10-04T00:00:00Z,30.2513,-88.0778,6.649,25.56,1111122 
DISL,ioos:station:DISL:DISL:1,2008-10-04T00:30:00Z,30.2513,-88.0778,6.655,25.4,1111122 
DISL,ioos:station:DISL:DISL:1,2008-10-04T01:00:00Z,30.2513,-88.0778,6.75,25.42,1111122 
DISL,ioos:station:DISL:DISL:1,2008-10-04T01:30:00Z,30.2513,-88.0778,6.811,25.84,1111122 
DISL,ioos:station:DISL:DISL:1,2008-10-04T02:00:00Z,30.2513,-88.0778,6.896,25.48,1111122 
DISL,ioos:station:DISL:DISL:1,2008-10-04T02:30:00Z,30.2513,-88.0778,6.951,25.57,1111122 
DISL,ioos:station:DISL:DISL:1,2008-10-04T03:00:00Z,30.2513,-88.0778,7.07,25.67,1111122 
DISL,ioos:station:DISL:DISL:1,2008-10-04T03:30:00Z,30.2513,-88.0778,7.14,26.39,1111122 
DISL,ioos:station:DISL:DISL:1,2008-10-04T04:00:00Z,30.2513,-88.0778,7.13,25.8,1111122 
DISL,ioos:station:DISL:DISL:1,2008-10-04T04:30:00Z,30.2513,-88.0778,7.2,25.61,1111122 
DISL,ioos:station:DISL:DISL:1,2008-10-04T05:00:00Z,30.2513,-88.0778,7.22,25.67,1111122 
DISL,ioos:station:DISL:DISL:1,2008-10-04T05:30:00Z,30.2513,-88.0778,7.2,25.72,1111122 
DISL,ioos:station:DISL:DISL:1,2008-10-04T06:00:00Z,30.2513,-88.0778,7.52,25.76,1111122 
DISL,ioos:station:DISL:DISL:1,2008-10-04T06:30:00Z,30.2513,-88.0778,7.23,25.81,1111122 
DISL,ioos:station:DISL:DISL:1,2008-10-04T07:00:00Z,30.2513,-88.0778,7.09,25.83,1111122 
DISL,ioos:station:DISL:DISL:1,2008-10-04T07:30:00Z,30.2513,-88.0778,7.11,25.83,1111122 
DISL,ioos:station:DISL:DISL:1,2008-10-04T08:00:00Z,30.2513,-88.0778,7.01,25.83,1111122 
DISL,ioos:station:DISL:DISL:1,2008-10-04T08:30:00Z,30.2513,-88.0778,6.916,25.83,1111122 
DISL,ioos:station:DISL:DISL:1,2008-10-04T09:00:00Z,30.2513,-88.0778,6.859,25.83,1111122 
DISL,ioos:station:DISL:DISL:1,2008-10-04T09:30:00Z,30.2513,-88.0778,6.769,25.82,1111122 
DISL,ioos:station:DISL:DISL:1,2008-10-04T10:00:00Z,30.2513,-88.0778,6.677,25.83,1111122 
DISL,ioos:station:DISL:DISL:1,2008-10-04T10:30:00Z,30.2513,-88.0778,6.552,25.83,1111122 
DISL,ioos:station:DISL:DISL:1,2008-10-04T11:00:00Z,30.2513,-88.0778,6.463,26.18,1111122 
DISL,ioos:station:DISL:DISL:1,2008-10-04T11:30:00Z,30.2513,-88.0778,6.376,26.81,1111122 
DISL,ioos:station:DISL:DISL:1,2008-10-04T12:00:00Z,30.2513,-88.0778,6.315,27.01,1111122 
DISL,ioos:station:DISL:DISL:1,2008-10-04T12:30:00Z,30.2513,-88.0778,6.241,27.34,1111122 
DISL,ioos:station:DISL:DISL:1,2008-10-04T13:00:00Z,30.2513,-88.0778,6.171,27.69,1111122 
DISL,ioos:station:DISL:DISL:1,2008-10-04T13:30:00Z,30.2513,-88.0778,6.059,27.98,1111122 
DISL,ioos:station:DISL:DISL:1,2008-10-04T14:00:00Z,30.2513,-88.0778,5.991,28.16,1111122 
DISL,ioos:station:DISL:DISL:1,2008-10-04T14:30:00Z,30.2513,-88.0778,5.885,27.29,1111122 
DISL,ioos:station:DISL:DISL:1,2008-10-04T15:00:00Z,30.2513,-88.0778,5.821,26.4,1111122 
DISL,ioos:station:DISL:DISL:1,2008-10-04T15:30:00Z,30.2513,-88.0778,5.786,26.26,1111122 
DISL,ioos:station:DISL:DISL:1,2008-10-04T16:00:00Z,30.2513,-88.0778,5.734,26.09,1111122 
DISL,ioos:station:DISL:DISL:1,2008-10-04T16:30:00Z,30.2513,-88.0778,5.658,25.94,1111122 
DISL,ioos:station:DISL:DISL:1,2008-10-04T17:00:00Z,30.2513,-88.0778,5.659,25.8,1111122 
DISL,ioos:station:DISL:DISL:1,2008-10-04T17:30:00Z,30.2513,-88.0778,5.621,25.87,1111122 
DISL,ioos:station:DISL:DISL:1,2008-10-04T18:00:00Z,30.2513,-88.0778,5.641,25.89,1111122 
DISL,ioos:station:DISL:DISL:1,2008-10-04T18:30:00Z,30.2513,-88.0778,5.652,25.88,1111122 
DISL,ioos:station:DISL:DISL:1,2008-10-04T19:00:00Z,30.2513,-88.0778,5.696,25.89,1111122 
DISL,ioos:station:DISL:DISL:1,2008-10-04T19:30:00Z,30.2513,-88.0778,5.69,25.93,1111122 
DISL,ioos:station:DISL:DISL:1,2008-10-04T20:00:00Z,30.2513,-88.0778,5.717,26.08,1111122 
DISL,ioos:station:DISL:DISL:1,2008-10-04T20:30:00Z,30.2513,-88.0778,5.753,26.22,1111122 
DISL,ioos:station:DISL:DISL:1,2008-10-04T21:00:00Z,30.2513,-88.0778,5.767,27.15,1111122 
DISL,ioos:station:DISL:DISL:1,2008-10-04T21:30:00Z,30.2513,-88.0778,5.83,27.48,1111122 
DISL,ioos:station:DISL:DISL:1,2008-10-04T22:00:00Z,30.2513,-88.0778,5.872,26.96,1111122 
DISL,ioos:station:DISL:DISL:1,2008-10-04T22:30:00Z,30.2513,-88.0778,5.924,26.94,1111122 
DISL,ioos:station:DISL:DISL:1,2008-10-04T23:00:00Z,30.2513,-88.0778,6.049,26.45,1111122 
DISL,ioos:station:DISL:DISL:1,2008-10-04T23:30:00Z,30.2513,-88.0778,6.068,26.35,1111122 
DISL,ioos:station:DISL:DISL:1,2008-10-05T00:00:00Z,30.2513,-88.0778,6.198,26.45,1111122 
DISL,ioos:station:DISL:DISL:1,2008-10-05T00:30:00Z,30.2513,-88.0778,6.283,26.62,1111122 
DISL,ioos:station:DISL:DISL:1,2008-10-05T01:00:00Z,30.2513,-88.0778,6.426,26.87,1111122 
DISL,ioos:station:DISL:DISL:1,2008-10-05T01:30:00Z,30.2513,-88.0778,6.558,27.25,1111122 
DISL,ioos:station:DISL:DISL:1,2008-10-05T02:00:00Z,30.2513,-88.0778,6.697,27.24,1111122 
DISL,ioos:station:DISL:DISL:1,2008-10-05T02:30:00Z,30.2513,-88.0778,6.814,27.23,1111122 
DISL,ioos:station:DISL:DISL:1,2008-10-05T03:00:00Z,30.2513,-88.0778,6.868,27.0,1111122 
DISL,ioos:station:DISL:DISL:1,2008-10-05T03:30:00Z,30.2513,-88.0778,6.942,26.9,1111122 
DISL,ioos:station:DISL:DISL:1,2008-10-05T04:00:00Z,30.2513,-88.0778,7.05,26.84,1111122 
DISL,ioos:station:DISL:DISL:1,2008-10-05T04:30:00Z,30.2513,-88.0778,7.16,26.77,1111122 
DISL,ioos:station:DISL:DISL:1,2008-10-05T05:00:00Z,30.2513,-88.0778,7.21,26.84,1111122 
DISL,ioos:station:DISL:DISL:1,2008-10-05T05:30:00Z,30.2513,-88.0778,7.29,26.88,1111122 
DISL,ioos:station:DISL:DISL:1,2008-10-05T06:00:00Z,30.2513,-88.0778,7.4,26.84,1111122 
DISL,ioos:station:DISL:DISL:1,2008-10-05T06:30:00Z,30.2513,-88.0778,7.42,28.52,1111122 
DISL,ioos:station:DISL:DISL:1,2008-10-05T07:00:00Z,30.2513,-88.0778,7.43,28.41,1111122 
DISL,ioos:station:DISL:DISL:1,2008-10-05T07:30:00Z,30.2513,-88.0778,7.39,27.32,1111122 
DISL,ioos:station:DISL:DISL:1,2008-10-05T08:00:00Z,30.2513,-88.0778,7.36,27.01,1111122 
DISL,ioos:station:DISL:DISL:1,2008-10-05T08:30:00Z,30.2513,-88.0778,7.31,27.0,1111122 
DISL,ioos:station:DISL:DISL:1,2008-10-05T09:00:00Z,30.2513,-88.0778,7.26,27.02,1111122 
DISL,ioos:station:DISL:DISL:1,2008-10-05T09:30:00Z,30.2513,-88.0778,7.17,27.04,1111122 
DISL,ioos:station:DISL:DISL:1,2008-10-05T10:00:00Z,30.2513,-88.0778,7.15,26.47,1111122 
DISL,ioos:station:DISL:DISL:1,2008-10-05T10:30:00Z,30.2513,-88.0778,7.04,25.68,1111122 
DISL,ioos:station:DISL:DISL:1,2008-10-05T11:00:00Z,30.2513,-88.0778,6.994,25.74,1111122 
DISL,ioos:station:DISL:DISL:1,2008-10-05T11:30:00Z,30.2513,-88.0778,6.92,25.98,1111122 
DISL,ioos:station:DISL:DISL:1,2008-10-05T12:00:00Z,30.2513,-88.0778,6.853,26.62,1111122 
DISL,ioos:station:DISL:DISL:1,2008-10-05T12:30:00Z,30.2513,-88.0778,6.805,26.73,1111122 
DISL,ioos:station:DISL:DISL:1,2008-10-05T13:00:00Z,30.2513,-88.0778,6.731,26.9,1111122 
DISL,ioos:station:DISL:DISL:1,2008-10-05T13:30:00Z,30.2513,-88.0778,6.645,27.32,1111122 
DISL,ioos:station:DISL:DISL:1,2008-10-05T14:00:00Z,30.2513,-88.0778,6.466,27.51,1111122 
DISL,ioos:station:DISL:DISL:1,2008-10-05T14:30:00Z,30.2513,-88.0778,6.427,28.12,1111122 
DISL,ioos:station:DISL:DISL:1,2008-10-05T15:00:00Z,30.2513,-88.0778,6.338,28.31,1111122 
DISL,ioos:station:DISL:DISL:1,2008-10-05T15:30:00Z,30.2513,-88.0778,6.251,28.32,1111122 
DISL,ioos:station:DISL:DISL:1,2008-10-05T16:00:00Z,30.2513,-88.0778,6.173,28.61,1111122 
DISL,ioos:station:DISL:DISL:1,2008-10-05T16:30:00Z,30.2513,-88.0778,6.192,28.78,1111122 
DISL,ioos:station:DISL:DISL:1,2008-10-05T17:00:00Z,30.2513,-88.0778,6.129,28.35,1111122 
DISL,ioos:station:DISL:DISL:1,2008-10-05T17:30:00Z,30.2513,-88.0778,6.119,28.2,1111122 
DISL,ioos:station:DISL:DISL:1,2008-10-05T18:00:00Z,30.2513,-88.0778,6.065,28.09,1111122 
DISL,ioos:station:DISL:DISL:1,2008-10-05T18:30:00Z,30.2513,-88.0778,6.054,28.2,1111122 
DISL,ioos:station:DISL:DISL:1,2008-10-05T19:00:00Z,30.2513,-88.0778,6.036,28.26,1111122 
DISL,ioos:station:DISL:DISL:1,2008-10-05T19:30:00Z,30.2513,-88.0778,6.026,28.29,1111122 
DISL,ioos:station:DISL:DISL:1,2008-10-05T20:00:00Z,30.2513,-88.0778,6.023,28.36,1111122 
DISL,ioos:station:DISL:DISL:1,2008-10-05T20:30:00Z,30.2513,-88.0778,6.034,28.7,1111122 
DISL,ioos:station:DISL:DISL:1,2008-10-05T21:00:00Z,30.2513,-88.0778,6.07,28.69,1111122 
DISL,ioos:station:DISL:DISL:1,2008-10-05T21:30:00Z,30.2513,-88.0778,6.107,28.47,1111122 
DISL,ioos:station:DISL:DISL:1,2008-10-05T22:00:00Z,30.2513,-88.0778,6.184,28.52,1111122 
DISL,ioos:station:DISL:DISL:1,2008-10-05T22:30:00Z,30.2513,-88.0778,6.2,28.62,1111122 
DISL,ioos:station:DISL:DISL:1,2008-10-05T23:00:00Z,30.2513,-88.0778,6.281,28.68,1111122 
DISL,ioos:station:DISL:DISL:1,2008-10-05T23:30:00Z,30.2513,-88.0778,6.398,28.74,1111122 
DISL,ioos:station:DISL:DISL:1,2008-10-06T00:00:00Z,30.2513,-88.0778,6.534,28.78,1111122 
DISL,ioos:station:DISL:DISL:1,2008-10-06T00:30:00Z,30.2513,-88.0778,6.597,28.72,1111122 
DISL,ioos:station:DISL:DISL:1,2008-10-06T01:00:00Z,30.2513,-88.0778,6.683,28.65,1111122 
DISL,ioos:station:DISL:DISL:1,2008-10-06T01:30:00Z,30.2513,-88.0778,6.85,28.68,1111122 
DISL,ioos:station:DISL:DISL:1,2008-10-06T02:00:00Z,30.2513,-88.0778,6.911,28.79,1111122 
DISL,ioos:station:DISL:DISL:1,2008-10-06T02:30:00Z,30.2513,-88.0778,6.994,30.03,1111122 
DISL,ioos:station:DISL:DISL:1,2008-10-06T03:00:00Z,30.2513,-88.0778,7.08,29.79,1111122 
DISL,ioos:station:DISL:DISL:1,2008-10-06T03:30:00Z,30.2513,-88.0778,7.13,29.78,1111122 
DISL,ioos:station:DISL:DISL:1,2008-10-06T04:00:00Z,30.2513,-88.0778,7.3,29.13,1111122 
DISL,ioos:station:DISL:DISL:1,2008-10-06T04:30:00Z,30.2513,-88.0778,7.34,29.0,1111122 
DISL,ioos:station:DISL:DISL:1,2008-10-06T05:00:00Z,30.2513,-88.0778,7.37,29.7,1111122 
DISL,ioos:station:DISL:DISL:1,2008-10-06T05:30:00Z,30.2513,-88.0778,7.49,29.83,1111122 
DISL,ioos:station:DISL:DISL:1,2008-10-06T06:00:00Z,30.2513,-88.0778,7.54,30.48,1111122 
DISL,ioos:station:DISL:DISL:1,2008-10-06T06:30:00Z,30.2513,-88.0778,7.61,30.66,1111122 
DISL,ioos:station:DISL:DISL:1,2008-10-06T07:00:00Z,30.2513,-88.0778,7.62,31.14,1111122 
DISL,ioos:station:DISL:DISL:1,2008-10-06T07:30:00Z,30.2513,-88.0778,7.67,31.16,1111122 
DISL,ioos:station:DISL:DISL:1,2008-10-06T08:00:00Z,30.2513,-88.0778,7.69,31.3,1111122 
DISL,ioos:station:DISL:DISL:1,2008-10-06T08:30:00Z,30.2513,-88.0778,7.69,31.35,1111122 
DISL,ioos:station:DISL:DISL:1,2008-10-06T09:00:00Z,30.2513,-88.0778,7.7,31.15,1111122 
DISL,ioos:station:DISL:DISL:1,2008-10-06T09:30:00Z,30.2513,-88.0778,7.64,30.38,1111122 
DISL,ioos:station:DISL:DISL:1,2008-10-06T10:00:00Z,30.2513,-88.0778,7.49,30.29,1111122 
DISL,ioos:station:DISL:DISL:1,2008-10-06T10:30:00Z,30.2513,-88.0778,7.56,30.0,1111122 
DISL,ioos:station:DISL:DISL:1,2008-10-06T11:00:00Z,30.2513,-88.0778,7.51,29.83,1111122 
DISL,ioos:station:DISL:DISL:1,2008-10-06T11:30:00Z,30.2513,-88.0778,7.43,29.66,1111122 
DISL,ioos:station:DISL:DISL:1,2008-10-06T12:00:00Z,30.2513,-88.0778,7.46,29.79,1111122 
DISL,ioos:station:DISL:DISL:1,2008-10-06T12:30:00Z,30.2513,-88.0778,7.3,29.85,1111122 
DISL,ioos:station:DISL:DISL:1,2008-10-06T13:00:00Z,30.2513,-88.0778,7.27,29.5,1111122 
DISL,ioos:station:DISL:DISL:1,2008-10-06T13:30:00Z,30.2513,-88.0778,7.14,29.33,1111122 
DISL,ioos:station:DISL:DISL:1,2008-10-06T14:00:00Z,30.2513,-88.0778,7.1,29.31,1111122 
DISL,ioos:station:DISL:DISL:1,2008-10-06T14:30:00Z,30.2513,-88.0778,7.09,29.41,1111122 